SCP
0 0 0 0 0 0 0 0 0 0 0 0 0 0 0 0 0 0 0 0 0 0 0 0 0 0 0 0 0 0 0 0 0 0 0 0 0 0 0 0 0 0 0 0 0 0 0 0 0
0 0 0 0 0 0 0 0 0 0 0 0 0 0 0 0 0 0 0 0 0 0 0 0 0 0 0 0 0 0 0 0 0 0 0 0 0 0 0 0 0 0 0 0 0 0 0 0 0
0 0 0 0 0 0 0 0 0 0 0 0 0 0 0 0 0 0 0 0 0 0 0 0 0 0 0 0 0 0 0 0 0 0 0 0 0 0 0 0 0 0 0 0 0 0 0 0 0
0 0 0 0 0 0 0 0 0 0 0 0 0 0 0 0 0 0 0 0 0 0 0 0 0 0 0 0 0 0 0 0 0 0 0 0 0 0 0 0 0 0 0 0 0 0 0 0 0
0 0 0 0 0 0 0 0 0 0 0 0 0 0 0 0 0 0 0 0 0 0 0 0 0 0 0 0 0 0 0 0 0 0 0 0 0 0 0 0 0 0 0 0 0 0 0 0 0
0 0 0 0 0 0 0 0 0 0 0 0 0 0 0 0 0 0 0 0 0 0 0 0 0 0 0 0 0 0 0 0 0 0 0 0 0 0 0 0 0 0 0 0 0 0 0 0 0
0 0 0 0 0 0 0 0 0 0 0 0 0 0 0 0 0 0 0 0 0 0 0 0 0 0 0 0 0 0 0 0 0 0 0 0 0 0 0 0 0 0 0 0 0 0 0 0 0
0 0 0 0 0 0 0 0 0 0 0 0 0 0 0 0 0 0 0 0 0 0 0 0 0 0 0 0 0 0 0 0 0 0 0 0 0 0 0 0 0 0 0 0 0 0 0 0 0
0 0 0 0 0 0 0 0 0 0 0 0 0 0 0 0 0 0 0 0 0 0 0 0 0 0 0 0 0 0 0 0 0 0 0 0 0 0 0 0 0 0 0 0 0 0 0 0 0
0 0 0 0 0 0 0 0 0 0 0 0 0 0 0 0 0 0 0 0 0 0 0 0 0 0 0 0 0 0 0 0 0 0 0 0 0 0 0 0 0 0 0 0 0 0 0 0 0
0 0 0 0 0 0 0 0 0 0 0 0 0 0 0 0 0 0 0 0 0 0 0 0 0 0 0 0 0 0 0 0 0 0 0 0 0 0 0 0 0 0 0 0 0 0 0 0 0
0 0 0 0 0 0 0 0 0 0 0 0 0 0 0 0 0 0 0 0 0 0 0 0 0 0 0 0 0 0 0 0 0 0 0 0 0 0 0 0 0 0 0 0 0 0 0 0 0
0 0 0 0 0 0 0 0 0 0 0 0 0 0 0 0 0 0 0 0 0 0 0 0 0 0 0 0 0 0 0 0 0 0 0 0 0 0 0 0 0 0 0 0 0 0 0 0 0
0 0 0 0 0 0 0 0 0 0 0 0 0 0 0 0 0 0 0 0 0 0 0 0 0 0 0 0 0 0 0 0 0 0 0 0 0 0 0 0 0 0 0 0 0 0 0 0 0
0 0 0 0 0 0 0 0 0 0 0 0 0 0 0 0 0 0 0 0 0 0 0 0 0 0 0 0 0 0 0 0 0 0 0 0 0 0 0 0 0 0 0 0 0 0 0 0 0
0 0 0 0 0 0 0 0 0 0 0 0 0 0 0 0 0 0 0 0 0 0 0 0 0 0 0 0 0 0 0 0 0 0 0 0 0 0 0 0 0 0 0 0 0 0 0 0 0
0 0 0 0 0 0 0 0 0 0 0 0 0 0 0 0 0 0 0 0 0 0 0 0 0 0 0 0 0 0 0 0 0 0 0 0 0 0 0 0 0 0 0 0 0 0 0 0 0
0 0 0 0 0 0 0 0 0 0 0 0 0 0 0 0 0 0 0 0 0 0 0 0 0 0 0 0 0 0 0 0 0 0 0 0 0 0 0 0 0 0 0 0 0 0 0 0 0
0 0 0 0 0 0 0 0 0 0 0 0 0 0 0 0 0 0 0 0 0 0 0 0 0 0 0 0 0 0 0 0 0 0 0 0 0 0 0 0 0 0 0 0 0 0 0 0 0
0 0 0 0 0 0 0 0 0 0 0 0 0 0 0 0 0 0 0 0 0 0 0 0 0 0 0 0 0 0 0 0 0 0 0 0 0 0 0 0 0 0 0 0 0 0 0 0 0
0 0 0 0 0 0 0 0 0 0 0 0 0 0 0 0 0 0 0 0 0 0 0 0 0 0 0 0 0 0 0 0 0 0 0 0 0 0 0 0 0 0 0 0 0 0 0 0 0
0 0 0 0 0 0 0 0 0 0 0 0 0 0 0 0 0 0 0 0 0 0 0 0 0 0 0 0 0 0 0 0 0 0 0 0 0 0 0 0 0 0 0 0 0 0 0 0 0
0 0 0 0 0 0 0 0 0 0 0 0 0 0 0 0 0 0 0 0 0 0 0 0 0 0 0 0 0 0 0 0 0 0 0 0 0 0 0 0 0 0 0 0 0 0 0 0 0
0 0 0 0 0 0 0 0 0 0 0 0 0 0 0 0 0 0 0 0 0 0 0 0 0 0 0 0 0 0 0 0 0 0 0 0 0 0 0 0 0 0 0 0 0 0 0 0 0
0 0 0 0 0 0 0 0 0 0 0 0 0 0 0 0 0 0 0 0 0 0 0 0 0 0 0 0 0 0 0 0 0 0 0 0 0 0 0 0 0 0 0 0 0 0 0 0 0
0 0 0 0 0 0 0 0 0 0 0 0 0 0 0 0 0 0 0 0 0 0 0 0 0 0 0 0 0 0 0 0 0 0 0 0 0 0 0 0 0 0 0 0 0 0 0 0 0
0 0 0 0 0 0 0 0 0 0 0 0 0 0 0 0 0 0 0 0 0 0 0 0 0 0 0 0 0 0 0 0 0 0 0 0 0 0 0 0 0 0 0 0 0 0 0 0 0
0 0 0 0 0 0 0 0 0 0 0 0 0 0 0 0 0 0 0 0 0 0 0 0 0 0 0 0 0 0 0 0 0 0 0 0 0 0 0 0 0 0 0 0 0 0 0 0 0
0 0 0 0 0 0 0 0 0 0 0 0 0 0 0 0 0 0 0 0 0 0 0 0 0 0 0 0 0 0 0 0 0 0 0 0 0 0 0 0 0 0 0 0 0 0 0 0 0
0 0 0 0 -0 -0 0 0 0 0 0 0 0 0 0 0 0 0 0 0 0 0 0 0 0 0 0 0 0 0 0 0 0 0 0 0 0 0 0 0 0 0 0 0 0 0 0 0 0
Wind_Speed
6 4 2 0 2 2 2 2 1 3 2 2 3 4 5 3 2 1 0 4 4 4 5 8 11 10 11 11 11 11 11 11 11 11 10 10 10 10 10 10 9 9 9 9 8 8 8 8 8
5 4 1 1 3 2 3 2 2 2 1 2 3 4 5 3 2 3 2 3 5 6 5 7 11 11 11 11 11 10 10 11 10 10 9 9 9 9 9 9 9 8 8 8 8 8 8 8 7
6 3 1 2 1 1 2 1 1 2 2 2 3 3 3 2 2 3 3 5 5 5 4 6 12 11 10 10 10 9 9 10 9 9 9 8 8 8 8 8 8 8 8 8 8 8 8 7 7
3 1 2 3 1 3 3 3 1 1 3 4 3 3 2 2 2 3 5 6 6 4 4 6 11 10 10 9 9 8 8 8 8 8 8 8 8 7 7 7 7 7 7 7 7 7 7 6 6
1 2 3 2 3 2 2 1 1 2 2 3 3 3 2 3 4 6 6 6 6 4 3 5 10 10 10 9 8 8 7 7 7 7 7 7 7 7 7 7 7 6 7 7 7 7 6 6 5
2 2 2 2 4 3 1 1 2 2 2 2 3 3 1 2 4 5 5 5 5 5 4 4 9 9 9 9 8 7 7 6 6 6 6 6 6 6 7 6 6 6 6 6 6 6 6 5 5
2 2 0 1 3 2 1 1 2 2 2 2 3 3 1 1 2 4 5 5 4 4 3 3 4 6 8 8 8 7 6 6 6 6 5 5 5 6 6 6 5 5 5 5 5 5 5 5 5
2 2 1 1 2 2 1 2 2 2 2 3 4 5 3 3 4 6 6 5 3 3 2 2 3 3 3 4 7 7 6 5 5 5 5 5 5 5 6 5 5 5 5 5 5 4 5 5 4
2 3 1 2 2 2 0 2 2 2 4 3 3 3 3 8 8 7 5 4 3 2 1 2 2 3 2 2 4 5 5 4 4 3 4 3 1 1 2 4 5 5 5 5 5 5 4 4 3
3 2 4 3 2 1 0 1 2 3 3 2 4 5 8 9 9 7 5 4 3 2 2 2 3 3 2 2 2 1 1 1 1 1 1 1 1 1 2 2 4 4 5 5 5 5 4 3 1
4 5 3 2 2 1 1 1 2 5 1 3 5 7 9 8 7 6 5 5 4 3 3 3 3 3 3 1 1 1 1 0 1 1 1 1 1 0 0 0 1 2 2 1 2 2 1 1 1
3 4 3 3 0 1 2 2 2 2 3 3 7 10 9 9 8 7 6 5 4 3 3 3 3 3 3 2 1 1 1 1 1 1 1 1 1 1 1 1 1 1 0 1 1 1 1 1 2
3 3 2 2 1 1 2 2 2 0 2 6 9 9 9 8 7 5 5 4 4 4 3 3 3 3 3 2 2 2 1 1 1 1 1 2 2 2 1 1 1 1 1 1 1 1 1 1 1
2 1 2 1 1 1 3 1 2 1 5 7 8 8 8 8 7 5 4 4 4 4 4 3 3 3 3 3 2 2 2 2 1 1 2 2 2 2 2 2 1 1 1 1 1 1 1 1 1
1 2 3 1 1 1 3 2 1 3 7 6 6 7 7 6 5 6 7 6 5 5 4 3 4 3 3 4 3 2 2 2 2 2 2 3 3 3 2 2 1 2 1 1 1 1 1 1 1
2 3 2 3 1 1 4 2 3 4 7 6 6 6 6 5 5 5 5 4 4 3 3 3 4 3 3 3 3 2 2 2 2 2 2 3 3 3 2 2 2 2 1 1 1 1 1 1 1
3 1 2 4 1 2 2 2 3 4 6 6 6 5 5 5 4 4 4 4 4 3 3 3 2 3 3 3 2 2 1 1 1 1 2 2 3 3 3 2 2 2 1 1 1 1 1 1 1
3 2 2 3 2 2 1 3 2 3 6 6 6 5 5 6 7 6 5 5 4 3 3 3 2 2 2 2 1 1 0 1 1 1 2 2 2 3 3 2 2 2 1 1 1 1 1 1 1
3 3 3 4 2 2 2 3 3 3 4 4 5 6 6 7 5 4 4 4 4 3 3 3 2 2 2 1 1 1 1 1 1 1 1 2 2 3 3 2 2 2 2 2 2 1 1 1 1
3 3 3 3 1 2 1 3 3 4 6 6 7 7 8 6 4 4 4 4 5 4 4 3 3 3 3 2 2 1 1 1 1 1 0 1 2 2 3 3 2 2 2 2 2 2 1 1 1
4 5 5 3 2 3 2 4 3 3 3 3 4 5 5 7 7 6 6 5 5 5 6 5 4 4 3 2 1 1 1 1 1 1 1 1 1 2 2 3 3 2 2 2 2 3 3 2 1
4 6 5 4 2 1 1 2 6 3 4 4 5 5 6 7 7 6 6 6 6 6 5 4 3 3 3 3 3 3 2 2 2 1 1 1 0 1 2 2 3 2 2 2 3 3 2 3 2
5 1 3 3 3 1 1 1 7 1 4 7 6 6 6 6 7 8 8 8 6 5 4 4 3 3 3 3 4 3 2 2 1 0 0 1 1 1 1 2 2 2 2 3 2 2 2 2 2
3 5 6 5 4 0 3 3 6 4 6 6 5 5 5 5 6 6 6 5 5 5 4 4 3 3 3 3 3 4 4 2 1 1 1 0 0 1 1 1 1 2 2 2 2 2 2 2 2
5 6 4 4 3 5 2 2 8 6 5 6 6 5 4 4 4 4 5 6 6 6 6 5 5 4 3 3 3 4 4 3 3 3 2 1 0 0 1 1 1 1 1 2 2 2 2 2 2
4 8 7 5 5 4 1 4 7 5 4 3 3 2 2 3 4 5 6 7 6 6 6 6 6 4 4 3 3 3 3 3 2 2 2 2 1 1 1 1 1 1 1 1 1 1 2 2 3
5 3 5 7 2 1 4 5 7 2 2 1 1 1 3 3 4 4 4 4 5 6 6 7 7 5 4 4 4 3 3 3 2 2 2 1 1 1 0 1 1 1 1 1 1 1 2 1 2
5 8 6 6 4 2 4 4 5 4 4 3 3 3 4 3 2 2 3 3 3 4 4 4 4 4 4 4 4 3 2 2 2 2 2 1 1 0 0 0 1 1 1 1 1 1 1 1 1
4 4 5 5 5 6 3 8 7 8 7 6 6 5 4 4 4 3 3 3 3 3 4 4 4 4 3 3 3 2 2 2 2 1 1 1 1 1 1 1 1 1 1 1 1 1 1 1 2
4 6 8 5 4 4 4 9 5 6 6 5 5 4 3 3 3 3 3 3 4 4 4 4 4 4 3 3 3 2 2 1 1 1 2 2 2 2 2 1 1 1 1 1 2 2 2 2 3
Wind_Direction
168 151 143 154 44 42 340 311 337 358 3 19 62 82 98 91 129 151 304 141 132 136 148 152 149 146 143 142 140 140 142 140 140 141 144 147 148 150 151 154 156 155 153 150 151 151 150 151 150
151 153 175 50 59 34 318 314 356 346 82 94 63 62 70 62 65 108 136 159 140 143 146 151 152 149 146 143 143 143 142 142 145 147 145 148 151 152 153 155 155 155 154 153 154 153 153 154 153
162 186 104 57 50 204 275 299 326 17 75 71 67 58 73 89 111 154 181 153 136 139 143 155 154 151 150 148 147 146 145 146 150 152 151 153 154 155 155 156 157 157 156 157 158 155 156 156 155
161 93 52 60 332 257 245 267 273 45 37 46 78 68 56 59 147 158 146 141 134 138 145 158 154 152 152 150 149 149 150 151 155 157 158 160 159 158 157 158 160 161 162 162 161 160 161 160 160
78 76 46 13 303 279 262 210 152 72 52 59 80 86 41 14 92 125 138 139 140 145 150 159 158 157 156 154 155 157 159 159 159 161 165 164 166 165 162 161 159 160 166 167 166 167 169 168 165
61 64 58 344 313 314 346 99 98 85 88 92 98 100 44 60 101 132 132 133 140 144 148 155 162 161 161 160 160 165 167 164 162 163 165 167 170 172 172 172 169 168 169 169 170 173 176 173 173
102 84 102 285 306 321 8 55 98 101 91 118 125 107 38 86 121 124 118 115 119 130 138 148 155 161 164 166 168 172 174 169 168 169 173 176 179 183 181 180 178 181 181 177 177 183 184 185 185
136 92 1 299 286 305 10 49 76 91 92 106 116 135 186 180 122 98 89 88 103 111 131 145 143 145 151 162 173 176 173 168 172 178 180 187 191 190 193 191 190 192 195 195 194 195 199 198 196
126 73 275 249 233 267 83 50 45 64 94 86 89 128 144 128 118 102 89 80 91 118 130 146 136 130 134 151 177 180 179 176 176 182 187 190 190 188 198 202 200 202 208 212 210 208 209 207 216
124 154 237 226 216 208 46 74 138 95 83 77 74 75 106 123 129 130 133 141 151 166 171 151 142 143 141 168 161 153 169 160 156 146 170 128 114 182 198 221 218 220 227 231 228 221 218 213 200
170 207 251 270 234 163 149 93 90 127 162 192 158 139 133 135 141 150 160 168 175 175 171 159 159 156 156 164 149 120 111 117 152 174 165 134 122 184 248 249 267 260 252 258 252 244 222 189 175
193 237 232 272 229 140 168 138 98 144 202 159 145 142 144 152 164 173 175 177 169 161 177 170 167 161 166 160 158 146 156 175 199 203 184 161 166 203 231 237 255 256 235 218 223 215 223 203 201
211 264 276 262 128 155 130 133 141 290 119 116 128 137 155 166 178 185 182 173 169 178 188 184 174 172 172 167 182 176 188 198 206 203 203 187 191 208 218 230 228 234 220 216 219 221 224 218 218
231 265 300 315 104 125 123 106 113 183 122 123 139 156 172 179 184 182 182 183 189 194 196 185 180 186 175 180 187 195 198 202 198 210 212 197 196 203 205 226 232 231 222 217 211 222 223 223 209
8 1 349 10 92 147 104 28 252 162 138 145 161 170 180 188 190 193 193 193 195 198 195 186 185 180 179 188 195 191 191 190 205 216 211 204 202 203 202 212 234 241 226 214 209 229 220 225 212
32 39 340 292 167 150 109 268 271 150 149 166 176 181 187 196 204 208 199 196 190 185 187 196 186 173 181 186 179 170 171 181 215 221 214 213 209 201 196 204 230 231 207 191 197 220 221 232 229
29 8 283 297 232 115 112 244 259 168 166 180 184 189 196 204 214 215 203 199 194 191 184 190 190 171 176 173 164 162 158 176 208 215 219 217 207 198 191 201 216 200 180 190 210 199 203 220 232
228 234 256 268 262 93 118 252 265 188 182 191 193 198 203 209 216 210 204 200 194 189 183 190 185 167 161 150 133 121 146 229 225 222 226 214 200 192 189 201 204 184 171 179 182 183 198 208 207
189 203 252 261 250 133 216 251 253 205 199 204 208 209 216 222 220 202 200 197 187 184 186 192 185 177 148 145 172 184 225 236 238 234 227 215 200 186 181 190 188 181 183 192 176 163 166 211 161
183 208 254 293 31 132 241 292 261 205 214 215 214 216 218 220 213 205 197 196 193 192 196 192 191 180 177 187 190 186 186 211 222 279 264 225 206 190 186 182 186 183 176 176 170 158 152 178 154
210 195 212 216 8 48 86 325 293 267 244 243 239 230 221 219 216 210 206 204 201 203 204 202 194 185 183 179 148 104 65 33 27 339 309 275 223 201 190 188 186 180 176 187 193 177 170 185 190
243 220 189 167 120 280 132 272 281 263 275 252 248 241 232 230 218 210 208 208 210 211 206 204 191 188 180 161 160 161 169 201 227 231 260 320 294 224 198 192 186 186 186 192 205 184 179 176 196
218 177 150 137 134 53 0 184 284 309 266 261 254 245 242 232 215 208 207 207 208 202 198 195 177 182 178 166 174 179 194 214 223 119 339 328 330 307 244 180 173 183 193 202 201 183 179 184 196
141 70 59 50 78 295 243 176 275 241 229 253 253 245 239 226 212 209 204 195 198 191 187 180 174 190 185 174 174 183 190 187 158 208 232 262 322 338 322 203 184 191 196 203 204 197 191 205 207
97 91 41 2 8 253 254 193 252 254 234 228 239 242 234 215 205 203 196 195 197 189 187 179 177 191 190 175 176 188 190 183 196 211 214 208 231 278 285 247 200 212 220 209 191 184 209 211 213
166 141 156 192 221 268 296 234 257 267 256 231 230 227 220 206 201 201 203 201 202 195 188 180 181 190 183 179 194 198 196 193 208 211 202 200 214 238 245 200 215 240 230 211 183 188 215 213 221
144 166 162 135 147 289 284 286 298 306 329 312 252 222 227 221 218 210 199 194 197 193 190 186 182 187 187 188 191 196 201 201 209 206 199 204 205 227 215 169 218 245 224 203 171 211 230 217 227
138 143 105 118 146 242 289 275 254 256 251 258 250 236 238 231 229 218 193 191 184 176 174 171 177 183 184 182 191 192 201 202 199 178 178 189 201 246 228 176 212 237 238 214 187 222 234 214 247
116 108 113 122 151 161 235 265 230 220 216 217 231 231 226 219 212 206 194 182 158 142 146 162 172 176 181 182 184 194 211 205 181 181 200 202 198 208 215 219 221 236 240 235 214 242 226 221 246
164 164 149 153 201 174 184 261 265 218 212 210 229 241 236 218 205 192 182 159 145 150 155 165 175 180 182 166 164 187 196 175 173 205 223 207 208 215 213 213 220 242 254 240 225 238 240 232 241